Meteo18 Weather Cam more information Meteo18 Weather Cam


Thunder radar more information blitzortung!


Rain radar more information rain snow radar



Select another period ( hide this area )

Units Period Custom range Directly to
Metric English Both
Daily Weekly Monthly Yearly
use both date-selectors for a custom range
previous Day
With this date

WeatherUnderground graphs for this period ( click here )


Daily Summary for Wednesday 21 November 2018
Time Temp. ( °C ) Dew pt. ( °C ) Wind ( km/h ) from Gust ( km/h ) Pressure ( hPa ) Humid.( % ) Rainrate ( cm )
High4,9 3,0 11,1 NE ( 67/123 ) 14,5 1014,1 97 0,25
Average-0,1 -1,0 0,8 Calm #167/226 2,1 1012,4 94 0,00
Low-3,9 -4,6 -   0,0 1007,3 87 -
Daily Tabular details for Wednesday 21 November 2018
Time Temp. ( °C ) Dew pt. ( °C ) Wind ( km/h ) from Gust ( km/h ) Pressure ( hPa ) Humid.( % ) Rainrate ( cm )
00:03 -2,0 -2,6   Calm   1007,3 96 -
00:09 -2,2 -2,9   Calm   1007,3 95 -
00:13 -2,2 -2,8   Calm   1007,3 96 -
00:19 -2,1 -2,7   Calm   1007,3 96 -
00:23 -2,1 -2,7   Calm   1007,3 96 -
00:26 -2,2 -2,8   Calm   1007,3 96 -
00:34 -2,4 -3,1   Calm   1007,3 95 -
00:38 -2,6 -3,3   Calm   1007,7 95 -
00:44 -2,7 -3,4   Calm   1007,7 95 -
00:48 -2,8 -3,5   Calm   1007,7 95 -
00:54 -2,7 -3,2   Calm   1007,7 96 -
00:58 -2,5 -3,0   Calm   1007,7 96 -
01:04 -2,4 -3,0   Calm 1,6 1008,0 96 -
01:08 -2,5 -3,0   Calm   1008,0 96 -
01:14 -2,6 -3,1   Calm   1008,0 96 -
01:18 -2,6 -3,1   Calm   1008,0 96 -
01:24 -2,8 -3,5   Calm 1,6 1008,0 95 -
01:28 -2,7 -3,2   Calm 1,6 1008,0 96 -
01:34 -2,7 -3,2 1,4 North 1,6 1008,0 96 -
01:38 -2,7 -3,2   Calm 1,6 1008,0 96 -
01:44 -2,6 -3,1   Calm 1,6 1008,0 96 -
01:48 -2,6 -3,1   Calm   1008,4 96 -
01:54 -2,4 -3,0   Calm 1,6 1008,0 96 -
01:58 -2,3 -2,9   Calm   1008,0 96 -
02:04 -2,4 -3,0   Calm 1,6 1008,4 96 -
02:08 -2,4 -3,0   Calm 1,6 1008,4 96 -
02:14 -2,4 -3,0   Calm 1,6 1008,4 96 -
02:18 -2,4 -3,0   Calm 1,6 1008,4 96 -
02:24 -2,3 -2,9   Calm 1,6 1008,4 96 -
02:28 -2,4 -3,0 1,4 North 1,6 1008,7 96 -
02:34 -2,4 -3,0 1,4 NNW 3,2 1008,7 96 -
02:38 -2,4 -3,0   Calm   1008,7 96 -
02:44 -2,6 -3,1   Calm 1,6 1008,7 96 -
02:48 -2,5 -3,0   Calm 1,6 1008,7 96 -
02:54 -2,5 -3,0   Calm 1,6 1008,7 96 -
02:58 -2,6 -3,1   Calm   1008,7 96 -
03:03 -2,7 -3,4   Calm   1008,7 95 -
03:09 -2,8 -3,5   Calm   1008,7 95 -
03:13 -2,8 -3,5   Calm   1008,7 95 -
03:19 -2,8 -3,3   Calm   1008,7 96 -
03:23 -2,8 -3,3   Calm   1008,7 96 -
03:29 -2,6 -3,1   Calm   1008,7 96 -
03:33 -2,6 -3,1   Calm   1008,7 96 -
03:39 -2,8 -3,5   Calm   1008,7 95 -
03:43 -3,1 -3,8   Calm   1008,7 95 -
03:49 -3,0 -3,7   Calm   1008,7 95 -
03:53 -3,2 -3,9   Calm   1008,7 95 -
03:59 -3,2 -3,9   Calm   1008,7 95 -
04:03 -3,2 -3,7   Calm   1009,0 96 -
04:09 -3,2 -3,7   Calm   1009,0 96 -
04:13 -3,1 -3,6   Calm   1009,0 96 -
04:19 -3,1 -3,6   Calm   1009,0 96 -
04:23 -3,1 -3,6   Calm   1009,0 96 -
04:29 -3,0 -3,5   Calm   1009,0 96 -
04:33 -2,9 -3,4   Calm   1009,0 96 -
04:39 -2,7 -3,2   Calm 1,6 1009,0 96 -
04:43 -2,8 -3,3   Calm   1009,0 96 -
04:49 -3,1 -3,8   Calm   1009,0 95 -
04:53 -3,2 -3,9 1,4 NNE 1,6 1009,0 95 -
04:59 -3,3 -4,0   Calm 1,6 1009,4 95 -
05:03 -3,2 -3,9   Calm   1009,4 95 -
05:09 -3,2 -3,9   Calm   1009,4 95 -
05:13 -3,1 -3,8   Calm   1009,4 95 -
05:19 -3,3 -4,0   Calm 1,6 1009,7 95 -
05:23 -3,6 -4,3   Calm   1009,7 95 -
05:29 -3,8 -4,5   Calm   1009,7 95 -
05:33 -3,8 -4,5   Calm   1009,7 95 -
05:39 -3,8 -4,5   Calm   1010,0 95 -
05:43 -3,7 -4,4   Calm   1009,7 95 -
05:49 -3,7 -4,4   Calm   1009,7 95 -
05:53 -3,7 -4,4   Calm   1009,7 95 -
05:59 -3,7 -4,2   Calm   1010,0 96 -
06:03 -3,7 -4,2   Calm   1010,0 96 -
06:09 -3,6 -4,1   Calm 1,6 1010,0 96 -
06:13 -3,5 -4,0   Calm 1,6 1009,7 96 -
06:19 -3,4 -3,9   Calm 1,6 1010,0 96 -
06:23 -3,5 -4,0   Calm 1,6 1010,0 96 -
06:29 -3,6 -4,1   Calm   1010,0 96 -
06:33 -3,6 -4,1 1,4 WNW 1,6 1010,0 96 -
06:39 -3,7 -4,4   Calm 1,6 1010,0 95 -
06:43 -3,7 -4,2   Calm   1010,0 96 -
06:49 -3,7 -4,2   Calm 1,6 1010,0 96 -
06:53 -3,7 -4,2   Calm 1,6 1010,0 96 -
06:59 -3,7 -4,2   Calm 1,6 1010,0 96 -
07:03 -3,7 -4,2 1,4 North 1,6 1010,0 96 -
07:09 -3,9 -4,6 1,4 North 1,6 1010,0 95 -
07:13 -3,9 -4,4 1,4 NNW 1,6 1010,0 96 -
07:17 -3,6 -4,1   Calm 1,6 1010,4 96 -
07:24 -3,7 -4,2   Calm 1,6 1010,4 96 -
07:28 -3,7 -4,2 1,4 NNW 1,6 1010,4 96 -
07:34 -3,3 -3,8 1,4 NNW 3,2 1010,4 96 -
07:38 -3,2 -3,7 1,4 NW 3,2 1010,4 96 -
07:44 -2,9 -3,4   Calm 3,2 1010,4 96 -
07:48 -2,8 -3,3   Calm 1,6 1010,4 96 -
07:54 -3,4 -3,9 1,4 North 1,6 1010,7 96 -
07:58 -3,4 -3,9 1,4 NNW 1,6 1010,7 96 -
08:04 -3,3 -3,8   Calm 1,6 1010,7 96 -
08:08 -2,9 -3,4   Calm 1,6 1010,7 96 -
08:14 -2,8 -3,3   Calm 1,6 1010,7 96 -
08:18 -2,7 -3,2   Calm   1010,7 96 -
08:24 -2,8 -3,3   Calm 1,6 1010,7 96 -
08:28 -2,8 -3,3   Calm   1011,1 96 -
08:34 -2,9 -3,4   Calm   1011,1 96 -
08:38 -2,8 -3,3   Calm 1,6 1011,1 96 -
08:44 -2,7 -3,2   Calm   1011,1 96 -
08:46 -2,7 -3,2   Calm 1,6 1011,1 96 -
08:54 -2,6 -3,1   Calm   1011,4 96 -
08:58 -2,5 -3,0   Calm   1011,1 96 -
09:04 -2,4 -3,0   Calm   1011,4 96 -
09:08 -2,3 -2,9   Calm   1011,4 96 -
09:14 -2,2 -2,8   Calm   1011,4 96 -
09:18 -2,1 -2,7   Calm   1011,4 96 -
09:24 -2,0 -2,6   Calm   1011,4 96 -
09:28 -1,9 -2,5   Calm 1,6 1011,4 96 -
09:34 -1,8 -2,4   Calm 1,6 1011,7 96 -
09:38 -1,7 -2,3   Calm 1,6 1011,7 96 -
09:44 -1,7 -2,3   Calm 3,2 1011,7 96 -
09:48 -1,7 -2,3   Calm 1,6 1011,7 96 -
09:52 -1,6 -2,2   Calm   1011,7 96 -
09:59 -1,4 -2,0   Calm 1,6 1011,7 96 -
10:03 -1,3 -1,9   Calm 1,6 1011,7 96 -
10:09 -1,2 -1,8   Calm 1,6 1011,7 96 -
10:13 -1,1 -1,7   Calm   1011,7 96 -
10:19 -0,8 -1,4   Calm   1012,1 96 -
10:23 -0,7 -1,1   Calm   1012,1 97 -
10:29 -0,4 -0,8   Calm 1,6 1012,1 97 -
10:33 -0,3 -0,7   Calm   1012,1 97 -
10:39 -0,2 -0,6   Calm   1012,1 97 -
10:43 -0,1 -0,5   Calm 1,6 1012,1 97 -
10:47 0,0 -0,4   Calm   1012,4 97 -
10:53 0,2 -0,2 3,2 NE 3,2 1012,4 97 -
10:59 0,3 -0,1 1,4 North 3,2 1012,4 97 -
11:03 0,4 0,0   Calm 1,6 1012,4 97 -
11:09 0,6 0,2 1,4 NNE 3,2 1012,4 97 -
11:13 0,7 0,3   Calm 1,6 1012,4 97 0,25
11:19 0,8 0,4 1,4 North 1,6 1012,4 97 0,25
11:23 0,9 0,5   Calm 1,6 1012,4 97 0,25
11:29 1,1 0,7   Calm   1012,4 97 0,25
11:33 1,2 0,8   Calm   1012,4 97 0,25
11:39 1,4 1,0   Calm   1012,4 97 0,25
11:43 1,5 1,1   Calm   1012,4 97 0,25
11:49 1,6 1,2   Calm 1,6 1012,4 97 0,25
11:53 1,6 1,2   Calm 1,6 1012,4 97 0,25
11:59 1,7 1,1   Calm 3,2 1012,4 96 0,25
12:03 1,7 1,1   Calm 3,2 1012,4 96 0,25
12:08 1,8 1,2   Calm 4,8 1012,4 96 0,25
12:14 1,9 1,3 1,4 NE 4,8 1012,4 96 -
12:18 2,0 1,4 1,4 NE 3,2 1012,4 96 -
12:24 2,2 1,6 4,7 NNE 4,8 1012,4 96 -
12:28 2,2 1,6 7,9 NE 8,0 1012,4 96 -
12:34 2,4 1,8 7,9 NE 12,9 1012,4 96 -
12:38 2,4 1,7 4,7 NE 9,7 1012,4 95 -
12:44 2,7 1,8 6,4 NE 9,7 1012,4 94 -
12:48 2,7 1,8 9,7 NE 14,5 1012,4 94 -
12:54 2,8 1,6 7,9 NE 11,3 1012,4 92 -
12:58 2,9 1,7 7,9 NE 11,3 1012,4 92 -
13:04 3,1 1,8 11,1 NE 12,9 1012,8 91 -
13:08 3,1 1,6 1,4 NE 8,0 1012,8 90 -
13:14 3,1 1,6 6,4 NE 8,0 1012,8 90 -
13:18 3,2 1,7 1,4 NE 8,0 1012,8 90 -
13:24 3,2 1,7 9,7 NNE 14,5 1012,4 90 -
13:28 3,2 1,7 4,7 NNE 9,7 1012,4 90 -
13:34 3,2 1,6 7,9 NNE 9,7 1012,4 89 -
13:38 3,2 1,7 9,7 NE 9,7 1012,4 90 -
13:44 3,4 1,9 4,7 NE 8,0 1012,4 90 -
13:48 3,5 2,0 4,7 North 8,0 1012,4 90 -
13:54 3,7 2,2   Calm 8,0 1012,4 90 -
13:58 3,8 2,2 3,2 NNE 11,3 1012,4 89 -
14:04 3,9 2,3 6,4 NNE 9,7 1012,4 89 -
14:08 3,9 2,3 4,7 NE 9,7 1012,4 89 -
14:14 4,1 2,5 1,4 NNE 8,0 1012,4 89 -
14:18 4,1 2,5 4,7 NE 6,4 1012,4 89 -
14:24 4,3 2,5 3,2 NE 9,7 1012,4 88 -
14:28 4,3 2,6 3,2 ENE 6,4 1012,4 89 -
14:34 4,4 2,6 1,4 ENE 8,0 1012,4 88 -
14:38 4,4 2,6 1,4 East 6,4 1012,4 88 -
14:44 4,5 2,7 1,4 North 4,8 1012,4 88 -
14:48 4,6 2,8   Calm 3,2 1012,8 88 -
14:54 4,6 2,6   Calm 1,6 1012,8 87 -
14:58 4,7 2,7 1,4 NE 3,2 1012,8 87 -
15:04 4,7 2,7 1,4 North 3,2 1012,8 87 -
15:08 4,7 2,9 1,4 NNE 1,6 1012,8 88 -
15:14 4,8 3,0   Calm 1,6 1012,8 88 -
15:18 4,8 2,8   Calm 1,6 1012,8 87 -
15:24 4,9 2,9   Calm   1012,8 87 -
15:28 4,9 2,9   Calm   1012,8 87 -
15:34 4,9 2,9 1,4 North 1,6 1012,8 87 -
15:38 4,9 2,9 1,4 NNE 3,2 1012,8 87 -
15:44 4,9 2,9 1,4 North 1,6 1013,1 87 -
15:48 4,9 2,9 1,4 North 3,2 1013,1 87 -
15:54 4,9 2,9   Calm   1013,1 87 -
15:56 4,8 2,8   Calm   1013,1 87 -
16:04 4,9 2,9   Calm 1,6 1013,1 87 -
16:08 4,8 2,8   Calm 1,6 1013,1 87 -
16:14 4,8 2,8   Calm   1013,1 87 -
16:18 4,8 2,8   Calm 1,6 1013,4 87 -
16:24 4,9 2,9   Calm   1013,4 87 -
16:28 4,9 2,9   Calm 1,6 1013,4 87 -
16:34 4,9 2,9   Calm 1,6 1013,4 87 -
16:38 4,9 2,9   Calm 1,6 1013,4 87 -
16:44 4,8 3,0   Calm 1,6 1013,4 88 -
16:46 4,8 3,0   Calm   1013,4 88 -
16:54 4,8 3,0   Calm   1013,4 88 -
16:58 4,8 3,0   Calm 1,6 1013,4 88 -
17:04 4,7 2,9   Calm 1,6 1013,4 88 -
17:08 4,7 2,9 1,4 North 1,6 1013,8 88 -
17:14 4,7 2,9 1,4 North 1,6 1013,8 88 -
17:18 4,6 2,8   Calm 1,6 1013,8 88 -
17:24 4,4 2,6   Calm 1,6 1013,4 88 -
17:28 4,4 2,7   Calm 1,6 1013,8 89 -
17:34 4,2 2,5   Calm 1,6 1013,8 89 -
17:38 4,2 2,5   Calm 1,6 1013,8 89 -
17:44 4,1 2,5   Calm   1013,8 89 -
17:48 4,0 2,5   Calm   1013,8 90 -
17:54 3,9 2,4   Calm   1013,8 90 -
17:58 3,8 2,3   Calm   1013,8 90 -
18:04 3,7 2,2   Calm   1014,1 90 -
18:08 3,7 2,2   Calm 1,6 1014,1 90 -
18:14 3,6 2,1   Calm 1,6 1014,1 90 -
18:18 3,4 2,1 3,2 NNE 3,2 1014,1 91 -
18:24 3,3 2,0 1,4 NNW 3,2 1014,1 91 -
18:28 3,2 1,9   Calm 1,6 1014,1 91 -
18:34 3,1 1,8   Calm 4,8 1014,1 91 -
18:38 2,9 1,6   Calm 3,2 1014,1 91 -
18:44 2,8 1,6   Calm 3,2 1014,1 92 -
18:48 2,7 1,5 1,4 North 3,2 1014,1 92 -
Daily Summary for Wednesday 21 November 2018
Time Temp. ( °C ) Dew pt. ( °C ) Wind ( km/h ) from Gust ( km/h ) Pressure ( hPa ) Humid.( % ) Rainrate ( cm )
High4,9 3,0 11,1 NE ( 67/123 ) 14,5 1014,1 97 0,25
Average-0,1 -1,0 0,8 Calm #167/226 2,1 1012,4 94 0,00
Low-3,9 -4,6 -   0,0 1007,3 87 -
Daily Tabular details for Wednesday 21 November 2018
Time Temp. ( °C ) Dew pt. ( °C ) Wind ( km/h ) from Gust ( km/h ) Pressure ( hPa ) Humid.( % ) Rainrate ( cm )
00:03 -2,0 -2,6   Calm   1007,3 96 -
00:09 -2,2 -2,9   Calm   1007,3 95 -
00:13 -2,2 -2,8   Calm   1007,3 96 -
00:19 -2,1 -2,7   Calm   1007,3 96 -
00:23 -2,1 -2,7   Calm   1007,3 96 -
00:26 -2,2 -2,8   Calm   1007,3 96 -
00:34 -2,4 -3,1   Calm   1007,3 95 -
00:38 -2,6 -3,3   Calm   1007,7 95 -
00:44 -2,7 -3,4   Calm   1007,7 95 -
00:48 -2,8 -3,5   Calm   1007,7 95 -
00:54 -2,7 -3,2   Calm   1007,7 96 -
00:58 -2,5 -3,0   Calm   1007,7 96 -
01:04 -2,4 -3,0   Calm 1,6 1008,0 96 -
01:08 -2,5 -3,0   Calm   1008,0 96 -
01:14 -2,6 -3,1   Calm   1008,0 96 -
01:18 -2,6 -3,1   Calm   1008,0 96 -
01:24 -2,8 -3,5   Calm 1,6 1008,0 95 -
01:28 -2,7 -3,2   Calm 1,6 1008,0 96 -
01:34 -2,7 -3,2 1,4 North 1,6 1008,0 96 -
01:38 -2,7 -3,2   Calm 1,6 1008,0 96 -
01:44 -2,6 -3,1   Calm 1,6 1008,0 96 -
01:48 -2,6 -3,1   Calm   1008,4 96 -
01:54 -2,4 -3,0   Calm 1,6 1008,0 96 -
01:58 -2,3 -2,9   Calm   1008,0 96 -
02:04 -2,4 -3,0   Calm 1,6 1008,4 96 -
02:08 -2,4 -3,0   Calm 1,6 1008,4 96 -
02:14 -2,4 -3,0   Calm 1,6 1008,4 96 -
02:18 -2,4 -3,0   Calm 1,6 1008,4 96 -
02:24 -2,3 -2,9   Calm 1,6 1008,4 96 -
02:28 -2,4 -3,0 1,4 North 1,6 1008,7 96 -
02:34 -2,4 -3,0 1,4 NNW 3,2 1008,7 96 -
02:38 -2,4 -3,0   Calm   1008,7 96 -
02:44 -2,6 -3,1   Calm 1,6 1008,7 96 -
02:48 -2,5 -3,0   Calm 1,6 1008,7 96 -
02:54 -2,5 -3,0   Calm 1,6 1008,7 96 -
02:58 -2,6 -3,1   Calm   1008,7 96 -
03:03 -2,7 -3,4   Calm   1008,7 95 -
03:09 -2,8 -3,5   Calm   1008,7 95 -
03:13 -2,8 -3,5   Calm   1008,7 95 -
03:19 -2,8 -3,3   Calm   1008,7 96 -
03:23 -2,8 -3,3   Calm   1008,7 96 -
03:29 -2,6 -3,1   Calm   1008,7 96 -
03:33 -2,6 -3,1   Calm   1008,7 96 -
03:39 -2,8 -3,5   Calm   1008,7 95 -
03:43 -3,1 -3,8   Calm   1008,7 95 -
03:49 -3,0 -3,7   Calm   1008,7 95 -
03:53 -3,2 -3,9   Calm   1008,7 95 -
03:59 -3,2 -3,9   Calm   1008,7 95 -
04:03 -3,2 -3,7   Calm   1009,0 96 -
04:09 -3,2 -3,7   Calm   1009,0 96 -
04:13 -3,1 -3,6   Calm   1009,0 96 -
04:19 -3,1 -3,6   Calm   1009,0 96 -
04:23 -3,1 -3,6   Calm   1009,0 96 -
04:29 -3,0 -3,5   Calm   1009,0 96 -
04:33 -2,9 -3,4   Calm   1009,0 96 -
04:39 -2,7 -3,2   Calm 1,6 1009,0 96 -
04:43 -2,8 -3,3   Calm   1009,0 96 -
04:49 -3,1 -3,8   Calm   1009,0 95 -
04:53 -3,2 -3,9 1,4 NNE 1,6 1009,0 95 -
04:59 -3,3 -4,0   Calm 1,6 1009,4 95 -
05:03 -3,2 -3,9   Calm   1009,4 95 -
05:09 -3,2 -3,9   Calm   1009,4 95 -
05:13 -3,1 -3,8   Calm   1009,4 95 -
05:19 -3,3 -4,0   Calm 1,6 1009,7 95 -
05:23 -3,6 -4,3   Calm   1009,7 95 -
05:29 -3,8 -4,5   Calm   1009,7 95 -
05:33 -3,8 -4,5   Calm   1009,7 95 -
05:39 -3,8 -4,5   Calm   1010,0 95 -
05:43 -3,7 -4,4   Calm   1009,7 95 -
05:49 -3,7 -4,4   Calm   1009,7 95 -
05:53 -3,7 -4,4   Calm   1009,7 95 -
05:59 -3,7 -4,2   Calm   1010,0 96 -
06:03 -3,7 -4,2   Calm   1010,0 96 -
06:09 -3,6 -4,1   Calm 1,6 1010,0 96 -
06:13 -3,5 -4,0   Calm 1,6 1009,7 96 -
06:19 -3,4 -3,9   Calm 1,6 1010,0 96 -
06:23 -3,5 -4,0   Calm 1,6 1010,0 96 -
06:29 -3,6 -4,1   Calm   1010,0 96 -
06:33 -3,6 -4,1 1,4 WNW 1,6 1010,0 96 -
06:39 -3,7 -4,4   Calm 1,6 1010,0 95 -
06:43 -3,7 -4,2   Calm   1010,0 96 -
06:49 -3,7 -4,2   Calm 1,6 1010,0 96 -
06:53 -3,7 -4,2   Calm 1,6 1010,0 96 -
06:59 -3,7 -4,2   Calm 1,6 1010,0 96 -
07:03 -3,7 -4,2 1,4 North 1,6 1010,0 96 -
07:09 -3,9 -4,6 1,4 North 1,6 1010,0 95 -
07:13 -3,9 -4,4 1,4 NNW 1,6 1010,0 96 -
07:17 -3,6 -4,1   Calm 1,6 1010,4 96 -
07:24 -3,7 -4,2   Calm 1,6 1010,4 96 -
07:28 -3,7 -4,2 1,4 NNW 1,6 1010,4 96 -
07:34 -3,3 -3,8 1,4 NNW 3,2 1010,4 96 -
07:38 -3,2 -3,7 1,4 NW 3,2 1010,4 96 -
07:44 -2,9 -3,4   Calm 3,2 1010,4 96 -
07:48 -2,8 -3,3   Calm 1,6 1010,4 96 -
07:54 -3,4 -3,9 1,4 North 1,6 1010,7 96 -
07:58 -3,4 -3,9 1,4 NNW 1,6 1010,7 96 -
08:04 -3,3 -3,8   Calm 1,6 1010,7 96 -
08:08 -2,9 -3,4   Calm 1,6 1010,7 96 -
08:14 -2,8 -3,3   Calm 1,6 1010,7 96 -
08:18 -2,7 -3,2   Calm   1010,7 96 -
08:24 -2,8 -3,3   Calm 1,6 1010,7 96 -
08:28 -2,8 -3,3   Calm   1011,1 96 -
08:34 -2,9 -3,4   Calm   1011,1 96 -
08:38 -2,8 -3,3   Calm 1,6 1011,1 96 -
08:44 -2,7 -3,2   Calm   1011,1 96 -
08:46 -2,7 -3,2   Calm 1,6 1011,1 96 -
08:54 -2,6 -3,1   Calm   1011,4 96 -
08:58 -2,5 -3,0   Calm   1011,1 96 -
09:04 -2,4 -3,0   Calm   1011,4 96 -
09:08 -2,3 -2,9   Calm   1011,4 96 -
09:14 -2,2 -2,8   Calm   1011,4 96 -
09:18 -2,1 -2,7   Calm   1011,4 96 -
09:24 -2,0 -2,6   Calm   1011,4 96 -
09:28 -1,9 -2,5   Calm 1,6 1011,4 96 -
09:34 -1,8 -2,4   Calm 1,6 1011,7 96 -
09:38 -1,7 -2,3   Calm 1,6 1011,7 96 -
09:44 -1,7 -2,3   Calm 3,2 1011,7 96 -
09:48 -1,7 -2,3   Calm 1,6 1011,7 96 -
09:52 -1,6 -2,2   Calm   1011,7 96 -
09:59 -1,4 -2,0   Calm 1,6 1011,7 96 -
10:03 -1,3 -1,9   Calm 1,6 1011,7 96 -
10:09 -1,2 -1,8   Calm 1,6 1011,7 96 -
10:13 -1,1 -1,7   Calm   1011,7 96 -
10:19 -0,8 -1,4   Calm   1012,1 96 -
10:23 -0,7 -1,1   Calm   1012,1 97 -
10:29 -0,4 -0,8   Calm 1,6 1012,1 97 -
10:33 -0,3 -0,7   Calm   1012,1 97 -
10:39 -0,2 -0,6   Calm   1012,1 97 -
10:43 -0,1 -0,5   Calm 1,6 1012,1 97 -
10:47 0,0 -0,4   Calm   1012,4 97 -
10:53 0,2 -0,2 3,2 NE 3,2 1012,4 97 -
10:59 0,3 -0,1 1,4 North 3,2 1012,4 97 -
11:03 0,4 0,0   Calm 1,6 1012,4 97 -
11:09 0,6 0,2 1,4 NNE 3,2 1012,4 97 -
11:13 0,7 0,3   Calm 1,6 1012,4 97 0,25
11:19 0,8 0,4 1,4 North 1,6 1012,4 97 0,25
11:23 0,9 0,5   Calm 1,6 1012,4 97 0,25
11:29 1,1 0,7   Calm   1012,4 97 0,25
11:33 1,2 0,8   Calm   1012,4 97 0,25
11:39 1,4 1,0   Calm   1012,4 97 0,25
11:43 1,5 1,1   Calm   1012,4 97 0,25
11:49 1,6 1,2   Calm 1,6 1012,4 97 0,25
11:53 1,6 1,2   Calm 1,6 1012,4 97 0,25
11:59 1,7 1,1   Calm 3,2 1012,4 96 0,25
12:03 1,7 1,1   Calm 3,2 1012,4 96 0,25
12:08 1,8 1,2   Calm 4,8 1012,4 96 0,25
12:14 1,9 1,3 1,4 NE 4,8 1012,4 96 -
12:18 2,0 1,4 1,4 NE 3,2 1012,4 96 -
12:24 2,2 1,6 4,7 NNE 4,8 1012,4 96 -
12:28 2,2 1,6 7,9 NE 8,0 1012,4 96 -
12:34 2,4 1,8 7,9 NE 12,9 1012,4 96 -
12:38 2,4 1,7 4,7 NE 9,7 1012,4 95 -
12:44 2,7 1,8 6,4 NE 9,7 1012,4 94 -
12:48 2,7 1,8 9,7 NE 14,5 1012,4 94 -
12:54 2,8 1,6 7,9 NE 11,3 1012,4 92 -
12:58 2,9 1,7 7,9 NE 11,3 1012,4 92 -
13:04 3,1 1,8 11,1 NE 12,9 1012,8 91 -
13:08 3,1 1,6 1,4 NE 8,0 1012,8 90 -
13:14 3,1 1,6 6,4 NE 8,0 1012,8 90 -
13:18 3,2 1,7 1,4 NE 8,0 1012,8 90 -
13:24 3,2 1,7 9,7 NNE 14,5 1012,4 90 -
13:28 3,2 1,7 4,7 NNE 9,7 1012,4 90 -
13:34 3,2 1,6 7,9 NNE 9,7 1012,4 89 -
13:38 3,2 1,7 9,7 NE 9,7 1012,4 90 -
13:44 3,4 1,9 4,7 NE 8,0 1012,4 90 -
13:48 3,5 2,0 4,7 North 8,0 1012,4 90 -
13:54 3,7 2,2   Calm 8,0 1012,4 90 -
13:58 3,8 2,2 3,2 NNE 11,3 1012,4 89 -
14:04 3,9 2,3 6,4 NNE 9,7 1012,4 89 -
14:08 3,9 2,3 4,7 NE 9,7 1012,4 89 -
14:14 4,1 2,5 1,4 NNE 8,0 1012,4 89 -
14:18 4,1 2,5 4,7 NE 6,4 1012,4 89 -
14:24 4,3 2,5 3,2 NE 9,7 1012,4 88 -
14:28 4,3 2,6 3,2 ENE 6,4 1012,4 89 -
14:34 4,4 2,6 1,4 ENE 8,0 1012,4 88 -
14:38 4,4 2,6 1,4 East 6,4 1012,4 88 -
14:44 4,5 2,7 1,4 North 4,8 1012,4 88 -
14:48 4,6 2,8   Calm 3,2 1012,8 88 -
14:54 4,6 2,6   Calm 1,6 1012,8 87 -
14:58 4,7 2,7 1,4 NE 3,2 1012,8 87 -
15:04 4,7 2,7 1,4 North 3,2 1012,8 87 -
15:08 4,7 2,9 1,4 NNE 1,6 1012,8 88 -
15:14 4,8 3,0   Calm 1,6 1012,8 88 -
15:18 4,8 2,8   Calm 1,6 1012,8 87 -
15:24 4,9 2,9   Calm   1012,8 87 -
15:28 4,9 2,9   Calm   1012,8 87 -
15:34 4,9 2,9 1,4 North 1,6 1012,8 87 -
15:38 4,9 2,9 1,4 NNE 3,2 1012,8 87 -
15:44 4,9 2,9 1,4 North 1,6 1013,1 87 -
15:48 4,9 2,9 1,4 North 3,2 1013,1 87 -
15:54 4,9 2,9   Calm   1013,1 87 -
15:56 4,8 2,8   Calm   1013,1 87 -
16:04 4,9 2,9   Calm 1,6 1013,1 87 -
16:08 4,8 2,8   Calm 1,6 1013,1 87 -
16:14 4,8 2,8   Calm   1013,1 87 -
16:18 4,8 2,8   Calm 1,6 1013,4 87 -
16:24 4,9 2,9   Calm   1013,4 87 -
16:28 4,9 2,9   Calm 1,6 1013,4 87 -
16:34 4,9 2,9   Calm 1,6 1013,4 87 -
16:38 4,9 2,9   Calm 1,6 1013,4 87 -
16:44 4,8 3,0   Calm 1,6 1013,4 88 -
16:46 4,8 3,0   Calm   1013,4 88 -
16:54 4,8 3,0   Calm   1013,4 88 -
16:58 4,8 3,0   Calm 1,6 1013,4 88 -
17:04 4,7 2,9   Calm 1,6 1013,4 88 -
17:08 4,7 2,9 1,4 North 1,6 1013,8 88 -
17:14 4,7 2,9 1,4 North 1,6 1013,8 88 -
17:18 4,6 2,8   Calm 1,6 1013,8 88 -
17:24 4,4 2,6   Calm 1,6 1013,4 88 -
17:28 4,4 2,7   Calm 1,6 1013,8 89 -
17:34 4,2 2,5   Calm 1,6 1013,8 89 -
17:38 4,2 2,5   Calm 1,6 1013,8 89 -
17:44 4,1 2,5   Calm   1013,8 89 -
17:48 4,0 2,5   Calm   1013,8 90 -
17:54 3,9 2,4   Calm   1013,8 90 -
17:58 3,8 2,3   Calm   1013,8 90 -
18:04 3,7 2,2   Calm   1014,1 90 -
18:08 3,7 2,2   Calm 1,6 1014,1 90 -
18:14 3,6 2,1   Calm 1,6 1014,1 90 -
18:18 3,4 2,1 3,2 NNE 3,2 1014,1 91 -
18:24 3,3 2,0 1,4 NNW 3,2 1014,1 91 -
18:28 3,2 1,9   Calm 1,6 1014,1 91 -
18:34 3,1 1,8   Calm 4,8 1014,1 91 -
18:38 2,9 1,6   Calm 3,2 1014,1 91 -
18:44 2,8 1,6   Calm 3,2 1014,1 92 -
18:48 2,7 1,5 1,4 North 3,2 1014,1 92 -

Download your copy of this data-set  here

Our weather-data as stored at Weather Underground. Script developed by Jim McMurry. Adapted for the template by Leuven-Template.eu

You find our weather info also at:

Weather Underground

Equipment we use:

Weather-station
Davis Vue

Weather-program
Meteobridge

Weather-server
Raspberry PI 2 B+

Provider
1 and 1

Davis Vue

Meteobridge

Raspberry PI 2 B+

1 and 1